Terminal Aerodrome Forecast
Issued by NWS

Home | Current Version | Previous Version | Text Only | Print | Product List | Glossary On
Versions: 1 2 3 4 5 6 7 8 9 10 11 12 13 14 15 16 17 18 19 20 21 22 23 24
938
FTUS41 KBUF 090545
TAFJHW
TAF
KJHW 090545Z 0906/1006 21004KT P6SM OVC006
     FM090900 21004KT 4SM BR VCSH OVC006
     FM091300 22008KT P6SM SCT008 OVC015
     FM091800 23010KT P6SM VCSH OVC025
     FM100000 24008KT P6SM BKN015
      AMD LTD TO CLD VIS AND WIND=

USA.gov is the U.S. government's official web portal to all federal, state and local government web resources and services.